Wind_Speed
17 16 16 17 19 19 19 20 22 23 22 21 22 24 25 25 28 26 16 8 8 9 9 10 12 13 14 15 16 17 19 22 26 29 29 27 25 24 22 20 19 20
17 16 15 16 18 19 20 20 21 22 22 21 21 23 24 25 28 26 20 12 9 9 10 11 11 13 14 14 16 17 19 23 27 30 30 28 26 25 23 21 20 20
19 18 16 16 17 18 19 20 21 21 21 20 20 21 23 24 26 27 24 19 12 9 11 12 12 13 14 15 15 16 19 23 28 30 29 28 26 25 24 22 21 20
20 20 19 18 17 16 17 18 19 20 19 19 20 20 21 22 24 26 27 25 19 11 10 13 14 14 15 15 15 16 18 23 28 30 29 27 26 25 24 23 22 21
22 22 22 20 18 16 14 15 17 18 17 17 20 20 20 20 22 24 26 28 24 15 10 12 15 16 15 15 16 16 17 22 27 29 29 27 26 25 24 24 23 22
27 26 26 23 20 17 14 13 15 16 16 16 19 21 19 18 21 22 24 27 26 19 11 9 13 16 17 17 17 17 18 21 26 28 27 26 25 25 25 25 24 22
30 29 28 25 21 18 15 13 14 15 15 16 19 21 18 16 19 21 22 25 26 22 16 9 10 14 17 18 18 18 19 20 24 26 26 25 25 25 26 25 24 22
29 28 27 26 23 19 16 14 14 15 16 18 20 19 17 16 18 20 21 23 24 24 21 13 8 10 15 18 20 20 20 21 23 25 26 26 26 26 27 26 24 23
28 27 27 27 25 21 18 16 16 17 18 20 21 20 18 17 19 20 21 23 23 23 23 18 10 8 11 16 20 22 23 22 23 25 26 27 27 28 28 27 25 24
28 27 28 28 26 23 20 19 20 20 21 22 24 24 22 21 23 24 23 23 23 23 24 21 14 8 8 12 18 22 24 25 25 26 26 27 29 29 28 26 24 23
31 29 29 29 28 26 24 23 23 22 22 24 26 26 27 25 24 25 24 23 24 23 24 23 18 11 8 9 14 19 23 25 25 26 27 28 29 29 27 25 23 23
31 31 30 31 31 30 29 27 26 25 25 26 26 28 29 27 24 24 23 22 23 23 23 24 22 16 11 9 10 14 18 21 24 25 26 28 29 28 27 25 23 23
30 32 33 34 33 33 33 32 30 29 28 28 27 29 31 28 23 21 21 20 21 22 22 23 23 20 15 10 9 11 14 18 21 23 24 26 27 26 25 24 23 23
33 33 34 35 35 35 36 35 33 32 31 29 27 28 30 28 23 21 22 22 21 21 21 23 24 22 19 14 10 10 12 15 18 21 23 25 25 24 23 23 23 23
36 36 36 36 36 36 36 36 35 34 32 29 28 29 31 31 28 25 25 26 23 21 22 24 24 22 21 17 12 10 12 14 17 19 21 23 23 22 22 22 22 22
35 37 38 38 38 38 37 37 37 36 34 32 31 31 31 31 30 28 27 26 25 23 23 24 24 22 20 19 15 12 12 14 16 18 19 20 21 20 20 21 21 21
41 39 38 37 38 40 40 39 39 39 38 37 34 32 31 29 28 27 28 28 27 26 26 25 24 23 21 20 18 15 14 15 16 17 19 19 20 20 20 20 21 21
46 43 41 39 38 39 40 41 40 41 41 40 37 36 36 34 32 31 32 33 31 30 30 28 26 25 24 22 20 18 16 16 17 18 19 20 20 20 20 20 21 21
48 45 43 42 42 41 42 44 46 45 45 44 43 43 43 43 42 41 40 40 38 35 33 32 30 27 26 25 22 20 19 18 19 20 21 21 21 20 20 20 21 22
48 45 42 41 41 41 42 44 46 46 46 46 46 46 47 49 50 48 46 45 44 40 38 37 34 31 29 28 26 24 22 21 21 22 23 23 22 21 21 21 22 23
47 44 40 37 37 37 38 38 39 40 43 45 45 44 43 43 46 47 45 44 45 44 42 40 38 35 33 31 30 28 27 24 23 23 25 26 25 24 23 23 23 24
46 42 38 35 35 35 33 32 32 34 39 42 41 39 38 38 39 40 42 46 50 51 48 45 42 40 38 35 32 30 30 28 26 24 25 27 28 28 28 27 26 26
45 42 38 37 38 38 36 34 35 36 38 39 36 33 33 35 38 42 48 55 59 56 52 49 46 43 42 40 36 33 31 30 28 26 28 31 33 33 33 32 31 30
44 42 39 38 39 41 43 44 47 48 48 48 48 46 44 45 49 54 59 61 61 58 54 52 48 46 44 43 41 38 33 30 28 30 34 38 38 37 37 36 34 31
41 40 40 40 40 41 44 47 50 51 51 52 54 58 58 57 58 60 60 60 59 58 56 54 50 48 47 46 45 43 39 35 34 34 37 40 42 42 41 38 34 32
37 36 37 39 40 42 44 47 50 52 53 53 54 57 60 60 59 59 58 57 56 55 55 54 52 49 48 48 48 47 45 43 42 42 42 43 44 45 44 42 38 35
Wind_Direction
303 309 316 324 329 334 337 336 337 344 353 358 2 7 8 2 2 3 354 320 273 252 241 232 227 226 223 221 219 214 210 210 207 205 205 207 208 210 212 212 212 212
296 304 309 319 326 332 333 331 332 338 347 355 359 4 6 4 6 9 5 344 300 260 245 237 232 229 228 225 222 219 215 211 207 205 206 207 209 212 214 215 216 216
290 296 300 308 318 329 333 331 329 332 340 350 356 360 3 4 7 10 10 2 336 285 250 235 232 231 230 229 226 222 218 211 206 206 207 208 211 214 217 218 219 220
285 291 293 296 306 320 331 334 331 329 335 346 352 355 358 1 4 6 8 7 357 324 272 240 229 229 230 231 228 224 218 210 206 206 208 210 213 216 219 222 224 224
277 285 288 288 294 305 319 328 330 329 331 339 346 349 353 357 360 2 4 5 2 348 307 258 236 228 229 230 226 222 216 209 205 206 209 212 215 219 222 225 227 228
268 277 283 283 284 290 302 316 323 325 328 331 336 342 347 353 357 359 2 3 2 359 339 286 250 235 230 229 225 220 215 209 206 207 211 215 220 224 227 228 229 232
264 271 277 277 275 281 292 305 311 314 319 321 326 336 344 351 356 358 359 1 3 2 354 325 272 247 234 229 225 220 216 212 209 211 215 221 226 229 230 229 230 233
260 264 271 271 268 272 282 292 295 299 306 309 314 326 338 347 355 358 356 356 359 1 359 347 307 265 244 233 228 223 219 215 212 214 218 224 227 229 229 229 230 234
253 257 263 266 265 267 272 277 281 286 293 297 301 310 319 327 335 342 347 349 351 355 357 353 332 290 257 240 231 227 224 220 218 217 219 223 225 226 227 228 229 232
245 249 256 260 262 265 269 273 276 281 286 289 294 300 305 309 314 320 329 337 342 347 353 354 344 316 280 252 236 229 226 225 225 222 222 223 225 225 224 224 226 230
237 244 252 257 259 263 270 275 275 277 282 284 287 294 301 306 309 310 316 327 335 340 347 351 348 334 308 277 251 237 230 228 228 227 225 224 225 223 221 222 226 230
234 241 249 255 258 261 268 273 273 273 275 279 284 291 297 302 307 307 311 321 331 335 339 345 347 341 324 298 270 251 240 234 231 229 227 225 224 223 222 224 228 232
238 241 247 252 257 261 265 269 271 270 271 277 284 289 291 294 298 301 303 314 325 329 331 336 341 341 331 310 282 259 246 239 235 230 226 223 221 221 223 226 229 232
249 243 245 249 253 258 262 264 267 267 268 274 279 281 283 284 286 288 291 299 312 319 320 324 330 335 332 318 291 264 245 236 231 226 221 218 219 221 225 229 231 232
256 247 245 246 249 254 258 259 262 263 265 269 270 272 274 276 278 279 279 287 297 302 304 310 316 322 327 320 297 268 248 236 228 223 220 219 221 226 229 233 234 235
264 259 252 249 250 252 254 256 260 261 263 265 267 270 271 272 274 273 271 277 287 290 290 297 304 308 316 317 302 271 246 237 231 227 226 227 229 232 234 236 237 238
270 269 263 258 255 255 255 257 259 260 261 262 264 267 269 267 268 267 266 271 280 283 284 286 292 297 302 307 302 281 253 238 233 231 232 235 237 237 237 237 237 238
268 270 268 264 261 258 257 258 259 261 261 260 260 264 267 268 268 267 266 270 274 279 282 279 280 285 289 293 295 287 267 249 239 237 236 237 239 239 238 238 238 239
268 270 269 267 266 263 261 260 262 263 262 260 259 260 263 267 269 269 270 270 269 274 278 276 273 275 278 281 283 282 276 261 248 243 241 241 242 241 241 241 241 242
269 269 269 269 268 266 265 264 264 262 262 261 260 261 262 264 265 268 271 268 264 269 275 272 269 268 269 272 274 273 273 269 259 251 248 248 247 244 243 243 243 244
269 268 266 265 264 263 263 265 265 265 263 262 263 265 266 265 264 267 268 263 262 269 273 268 266 265 264 265 268 268 268 268 266 261 257 256 255 253 249 247 246 247
267 265 259 252 249 250 253 256 259 263 263 263 266 268 269 267 266 264 259 257 262 269 269 264 261 261 260 260 261 263 264 265 266 269 268 266 262 258 255 251 248 247
262 260 254 244 237 234 234 234 235 238 244 248 250 254 257 257 256 254 253 257 263 266 263 260 258 256 256 255 254 255 259 262 264 269 272 271 268 263 259 255 251 249
257 256 252 246 239 234 231 230 230 231 234 237 236 236 240 243 246 250 254 259 262 262 260 258 256 254 255 254 251 250 250 252 255 258 260 261 262 263 261 257 254 253
256 255 253 250 247 243 237 234 236 237 239 241 239 238 241 245 248 251 254 257 259 259 259 258 256 255 255 255 253 249 245 242 244 249 252 253 255 258 259 258 255 254
256 257 257 256 254 251 245 241 241 243 245 248 248 246 246 247 249 252 254 256 257 257 256 255 255 255 255 255 254 251 247 243 242 244 248 252 255 257 258 258 256 254
Height
10975 10974 10973 10973 10972 10971 10971 10970 10969 10968 10967 10965 10963 10961 10959 10957 10955 10952 10950 10950 10949 10949 10950 10950 10950 10950 10951 10951 10952 10953 10954 10955 10957 10959 10962 10964 10966 10968 10969 10971 10973 10975
10973 10973 10972 10971 10971 10970 10970 10969 10968 10968 10967 10965 10963 10961 10959 10957 10955 10953 10951 10950 10949 10949 10949 10949 10949 10950 10950 10951 10951 10952 10953 10954 10955 10958 10960 10963 10965 10967 10968 10970 10972 10973
10972 10971 10971 10970 10970 10969 10968 10968 10967 10967 10966 10965 10964 10962 10960 10958 10956 10954 10952 10950 10949 10948 10948 10948 10949 10949 10950 10950 10951 10951 10952 10953 10955 10957 10959 10962 10964 10965 10967 10969 10971 10972
10970 10969 10969 10969 10968 10968 10967 10967 10967 10966 10966 10965 10964 10962 10960 10958 10956 10955 10953 10951 10949 10948 10947 10948 10948 10948 10949 10950 10950 10951 10952 10953 10954 10956 10958 10960 10962 10964 10966 10967 10969 10970
10967 10967 10967 10967 10967 10967 10966 10965 10965 10965 10965 10964 10963 10962 10960 10958 10956 10954 10952 10950 10948 10947 10946 10946 10947 10948 10948 10949 10950 10950 10951 10952 10953 10955 10957 10959 10961 10962 10964 10966 10967 10969
10964 10965 10965 10965 10965 10965 10964 10964 10964 10964 10963 10963 10962 10961 10959 10958 10956 10954 10952 10950 10948 10946 10945 10945 10945 10946 10947 10948 10948 10949 10950 10951 10952 10954 10956 10958 10959 10961 10962 10964 10966 10967
10961 10961 10962 10963 10963 10963 10963 10962 10962 10962 10962 10961 10960 10960 10958 10957 10955 10954 10952 10950 10948 10947 10945 10944 10944 10945 10946 10947 10947 10948 10949 10950 10951 10953 10955 10956 10958 10959 10961 10962 10964 10966
10957 10958 10959 10960 10960 10960 10960 10960 10960 10960 10960 10959 10959 10959 10957 10956 10954 10953 10952 10951 10949 10947 10946 10944 10943 10943 10944 10945 10946 10946 10947 10948 10950 10951 10953 10954 10956 10957 10959 10961 10963 10964
10953 10954 10956 10957 10957 10957 10958 10958 10958 10958 10957 10957 10957 10957 10956 10955 10954 10952 10951 10950 10949 10947 10946 10944 10943 10942 10942 10943 10944 10945 10946 10947 10948 10949 10950 10951 10953 10954 10956 10958 10960 10962
10948 10950 10952 10953 10954 10954 10955 10956 10955 10955 10955 10955 10954 10954 10955 10954 10953 10952 10951 10949 10948 10947 10945 10944 10942 10941 10940 10940 10941 10942 10943 10944 10946 10947 10948 10949 10950 10952 10954 10956 10957 10959
10944 10946 10948 10949 10950 10951 10952 10953 10953 10953 10953 10953 10952 10952 10952 10953 10952 10951 10950 10948 10947 10946 10944 10943 10942 10940 10939 10939 10939 10939 10940 10942 10943 10944 10946 10947 10948 10949 10951 10953 10955 10956
10940 10942 10944 10945 10946 10948 10949 10950 10951 10951 10951 10951 10951 10951 10950 10950 10951 10950 10949 10947 10946 10945 10943 10942 10941 10940 10939 10938 10937 10938 10938 10940 10941 10942 10944 10945 10946 10948 10949 10951 10952 10953
10935 10937 10939 10941 10943 10945 10946 10947 10948 10949 10949 10949 10950 10949 10948 10948 10949 10949 10948 10947 10945 10944 10942 10941 10940 10939 10938 10937 10936 10936 10936 10938 10939 10940 10942 10943 10944 10946 10947 10948 10949 10950
10930 10932 10935 10937 10939 10941 10943 10944 10945 10946 10947 10948 10948 10948 10946 10946 10947 10947 10946 10945 10944 10943 10942 10941 10939 10938 10937 10936 10935 10935 10935 10936 10937 10938 10940 10941 10943 10944 10945 10946 10947 10948
10926 10928 10930 10933 10935 10937 10938 10940 10942 10943 10944 10946 10946 10946 10945 10945 10944 10945 10944 10943 10942 10942 10941 10940 10939 10938 10937 10936 10935 10935 10934 10935 10936 10937 10938 10940 10941 10943 10944 10945 10945 10946
10922 10924 10927 10929 10930 10932 10934 10936 10938 10939 10941 10942 10943 10943 10943 10943 10942 10942 10942 10941 10940 10940 10940 10939 10938 10937 10937 10936 10935 10935 10934 10934 10935 10936 10938 10939 10940 10941 10942 10943 10943 10944
10919 10921 10924 10926 10927 10928 10930 10932 10934 10935 10937 10938 10939 10940 10940 10940 10940 10939 10939 10938 10938 10937 10937 10937 10937 10936 10936 10936 10935 10935 10934 10934 10934 10935 10937 10938 10939 10940 10940 10940 10941 10941
10915 10917 10919 10922 10925 10926 10927 10929 10930 10931 10932 10934 10935 10936 10936 10936 10936 10936 10935 10935 10934 10934 10933 10934 10935 10935 10935 10935 10935 10935 10934 10934 10934 10934 10935 10936 10937 10937 10938 10938 10939 10939
10910 10912 10914 10918 10921 10924 10925 10926 10926 10926 10927 10928 10930 10931 10931 10931 10931 10930 10930 10930 10930 10930 10930 10930 10932 10933 10933 10934 10934 10934 10934 10933 10933 10933 10934 10934 10935 10935 10936 10936 10937 10937
10905 10908 10912 10915 10916 10918 10919 10920 10921 10921 10922 10923 10924 10925 10926 10927 10926 10926 10925 10924 10924 10925 10926 10927 10928 10930 10931 10931 10932 10932 10933 10932 10932 10932 10932 10933 10933 10933 10934 10934 10934 10934
10899 10904 10911 10916 10914 10911 10912 10913 10914 10915 10915 10915 10917 10919 10920 10921 10920 10920 10919 10918 10918 10919 10922 10924 10925 10926 10927 10928 10929 10930 10930 10931 10931 10931 10931 10931 10931 10931 10931 10931 10931 10931
10895 10899 10907 10914 10914 10912 10912 10912 10913 10912 10910 10910 10911 10913 10914 10914 10915 10915 10915 10913 10912 10915 10918 10920 10921 10922 10923 10924 10926 10927 10928 10928 10929 10929 10929 10928 10928 10928 10928 10928 10927 10927
10890 10894 10899 10905 10908 10909 10910 10911 10911 10911 10908 10908 10909 10911 10912 10912 10912 10911 10910 10907 10907 10911 10913 10915 10917 10918 10919 10920 10922 10923 10925 10927 10928 10929 10927 10924 10923 10924 10923 10923 10923 10924
10886 10889 10892 10896 10899 10901 10903 10904 10905 10905 10904 10904 10906 10907 10908 10907 10906 10904 10902 10902 10903 10905 10907 10909 10911 10912 10913 10914 10916 10919 10921 10924 10927 10927 10923 10919 10917 10918 10918 10919 10920 10922
10883 10884 10886 10888 10890 10893 10895 10896 10897 10898 10899 10899 10900 10900 10900 10899 10898 10898 10898 10898 10898 10899 10900 10902 10904 10906 10907 10908 10910 10912 10916 10919 10920 10920 10916 10912 10911 10912 10913 10915 10917 10918
10879 10880 10880 10882 10883 10884 10886 10888 10889 10891 10892 10892 10892 10892 10892 10892 10892 10892 10892 10892 10893 10893 10894 10895 10897 10899 10901 10901 10903 10905 10908 10911 10912 10912 10909 10907 10906 10907 10909 10911 10912 10913